Нижний Куранах

Россия / Республика Саха (Якутия)     58°49′08″N   125°31′27″E
темп.,
°C
ветер,
м/с
пор.,
м/с
влажн.,
%
обл.,
%
осадки,
мм/ч
давл.,
гПа
погр.,
м
1 марта, пн
пн100:00−27з3993100 0.1 1034614
03:00−28зюз3896100 0.1 1034365
06:00−28зюз2797100 0.1 1034303
09:00−28зюз2795100 0.1 1034376
12:00−26зсз3688100 0.1 1033864
15:00−24з3584100 0.1 10311271
18:00−27зсз1197100 0.1 103119
21:00−30ююз2296100 0.1 103119
2 марта, вт
вт200:00−31ю229599 0.0 103119
03:00−31ю1295100 0.0 103119
06:00−33ю2292100 0.0 103019
09:00−31ю119091 0.0 102959
12:00−22сз028431 0.0 1026666
15:00−21зюз127565 0.0 10231096
18:00−25в1184100 0.0 102321
21:00−30ююв238084 0.0 102427
3 марта, ср
ср300:00−32юв128379 0.0 102319
03:00−33юв118388 0.0 102219
06:00−34всв1187100 0.0 102219
09:00−32с1192100 0.0 102134
12:00−26ссз119298 0.0 1019337
15:00−24ссз228999 0.1 1017580
18:00−26сз1198100 0.1 101919
21:00−28юз1199100 0.1 102219
4 марта, чт
чт400:00−29зюз1299100 0.1 102437
03:00−31з2299100 0.2 102655
06:00−32зюз2599100 0.1 1027175
09:00−31з4994100 0.1 1029560
12:00−29з5992100 0.1 1028814
15:00−27з6992100 0.3 10281066
18:00−28з51093100 0.2 1028982
21:00−29з41195100 0.3 10301002
5 марта, пт
пт500:00−29зсз41096100 0.2 10301089
03:00−29зсз41097100 0.4 10311107
06:00−30з3998100 0.2 1033908
09:00−29з5994100 0.3 1034898
12:00−27з5993100 0.2 1034945
15:00−25з5992100 0.4 1034972
18:00−25з4994100 0.2 1034938
21:00−26зюз41093100 0.3 1036659